| time (UTC) | temp F | wind direction | speed MPH | gust MPH | rain 1hr in | rain 24hr in | rain mn in | humidity % | barometer mb |
| 20260503224509 | 59 | 5 | 1.0 | 10.0 | 0.04 | 0.16 | 0.15 | 94 | 1014.7 |
| 20260503223007 | 0 | 0.0 | 0.0 | 0.00 | 0.12 | 0.11 | 1014.6 | ||
| 20260503221501 | 0 | 0.0 | 0.0 | 0.00 | 0.12 | 0.11 | 1014.7 | ||
| 20260503220100 | 0 | 0.0 | 0.0 | 0.00 | 0.12 | 0.11 | 1014.7 | ||
| 20260503214555 | 0 | 0.0 | 0.0 | 0.00 | 0.12 | 0.11 | 1014.6 | ||
| 20260503213051 | 0 | 0.0 | 0.0 | 0.00 | 0.12 | 0.11 | 1014.5 | ||
| 20260503211546 | 0 | 0.0 | 0.0 | 0.00 | 0.12 | 0.11 | 1014.5 | ||
| 20260503210042 | 0 | 0.0 | 0.0 | 0.00 | 0.12 | 0.11 | 1014.4 | ||
| 20260503204539 | 0 | 0.0 | 0.0 | 0.00 | 0.12 | 0.11 | 1014.2 | ||
| 20260503203042 | 0 | 0.0 | 0.0 | 0.00 | 0.12 | 0.11 | 1014.0 | ||
| 20260503201529 | 0 | 0.0 | 0.0 | 0.00 | 0.12 | 0.11 | 1014.0 | ||
| 20260503200024 | 0 | 0.0 | 0.0 | 0.00 | 0.12 | 0.11 | 1014.0 | ||
| 20260503194522 | 0 | 0.0 | 0.0 | 0.01 | 0.12 | 0.11 | 1014.0 | ||
| 20260503193016 | 0 | 0.0 | 0.0 | 0.02 | 0.12 | 0.11 | 1014.0 | ||
| 20260503191510 | 0 | 0.0 | 0.0 | 0.02 | 0.12 | 0.11 | 1014.2 | ||
| 20260503190008 | 0 | 0.0 | 0.0 | 0.02 | 0.12 | 0.11 | 1014.4 | ||
| 20260503184510 | 58 | 20 | 0.0 | 0.0 | 0.00 | 0.10 | 0.09 | 94 | 1014.5 |
| 20260503183002 | 58 | 20 | 0.0 | 0.0 | 0.00 | 0.10 | 0.09 | 94 | 1014.7 |
| 20260503181559 | 58 | 20 | 0.0 | 1.0 | 0.01 | 0.10 | 0.09 | 94 | 1014.8 |
| 20260503181503 | 58 | 20 | 0.0 | 1.0 | 0.02 | 0.10 | 0.09 | 94 | 1014.8 |
| 20260503180107 | 58 | 20 | 0.0 | 3.0 | 0.02 | 0.10 | 0.09 | 94 | 1014.9 |
| 20260503180000 | 58 | 20 | 0.0 | 3.0 | 0.02 | 0.10 | 0.09 | 94 | 1014.8 |
| 20260503174601 | 58 | 21 | 1.0 | 6.0 | 0.02 | 0.10 | 0.09 | 94 | 1014.7 |
| 20260503173109 | 58 | 5 | 1.0 | 6.0 | 0.02 | 0.10 | 0.09 | 93 | 1014.8 |
| 20260503171555 | 58 | 351 | 1.0 | 6.0 | 0.02 | 0.09 | 0.09 | 93 | 1015.0 |
| 20260503170122 | 58 | 27 | 0.0 | 3.0 | 0.01 | 0.08 | 0.07 | 93 | 1015.4 |
| 20260503081521 | 63 | 297 | 0.0 | 0.0 | 0.00 | 0.00 | 0.00 | 81 | 1017.2 |
| 20260503071519 | 65 | 298 | 0.0 | 5.0 | 0.00 | 0.00 | 0.00 | 76 | 1016.2 |
| 20260503054510 | 68 | 291 | 0.0 | 3.0 | 0.00 | 0.00 | 0.00 | 66 | 1016.5 |
| 20260503053009 | 68 | 291 | 0.0 | 6.0 | 0.00 | 0.00 | 0.00 | 66 | 1016.5 |
| 20260503051508 | 69 | 250 | 1.0 | 5.0 | 0.00 | 0.00 | 0.00 | 63 | 1016.6 |
| 20260503050015 | 69 | 247 | 2.0 | 8.0 | 0.00 | 0.00 | 0.00 | 63 | 1016.7 |
| 20260503044505 | 69 | 248 | 0.0 | 9.0 | 0.00 | 0.00 | 0.00 | 64 | 1016.9 |
| 20260503043004 | 69 | 348 | 2.0 | 9.0 | 0.00 | 0.00 | 0.00 | 64 | 1016.9 |
| 20260503041559 | 68 | 323 | 1.0 | 6.0 | 0.00 | 0.00 | 0.00 | 65 | 1017.1 |
| 20260503040113 | 68 | 5 | 1.0 | 5.0 | 0.00 | 0.00 | 0.00 | 65 | 1017.2 |
| 20260503034553 | 68 | 5 | 3.0 | 8.0 | 0.00 | 0.00 | 0.00 | 65 | 1017.2 |
| 20260503033048 | 67 | 292 | 2.0 | 7.0 | 0.00 | 0.00 | 0.00 | 68 | 1017.4 |
| 20260503031600 | 67 | 269 | 1.0 | 8.0 | 0.00 | 0.00 | 0.00 | 68 | 1017.7 |
| 20260503030049 | 67 | 316 | 2.0 | 8.0 | 0.00 | 0.00 | 0.00 | 67 | 1018.0 |
| 20260503024542 | 67 | 268 | 1.0 | 6.0 | 0.00 | 0.00 | 0.00 | 68 | 1018.1 |
| 20260503023039 | 67 | 236 | 0.0 | 4.0 | 0.00 | 0.00 | 0.00 | 67 | 1018.3 |
| 20260503021535 | 67 | 313 | 1.0 | 5.0 | 0.00 | 0.00 | 0.00 | 67 | 1018.8 |
| 20260503020036 | 66 | 301 | 1.0 | 6.0 | 0.00 | 0.00 | 0.00 | 68 | 1019.1 |
| 20260503014529 | 66 | 30 | 1.0 | 5.0 | 0.00 | 0.00 | 0.00 | 68 | 1019.3 |
| 20260503013030 | 65 | 348 | 1.0 | 7.0 | 0.00 | 0.00 | 0.00 | 71 | 1019.7 |
| 20260503011522 | 64 | 157 | 0.0 | 7.0 | 0.00 | 0.00 | 0.00 | 72 | 1019.9 |
| 20260503010023 | 63 | 153 | 0.0 | 0.0 | 0.00 | 0.00 | 0.00 | 75 | 1020.2 |
| 20260503004516 | 62 | 153 | 0.0 | 2.0 | 0.00 | 0.00 | 0.00 | 79 | 1020.3 |
| 20260503003015 | 61 | 153 | 0.0 | 1.0 | 0.00 | 0.00 | 0.00 | 81 | 1020.4 |
| 20260503001513 | 60 | 153 | 0.0 | 5.0 | 0.00 | 0.00 | 0.00 | 83 | 1020.6 |
| 20260503000014 | 59 | 153 | 0.0 | 2.0 | 0.00 | 0.00 | 0.00 | 86 | 1020.8 |
| 20260502234518 | 58 | 153 | 0.0 | 3.0 | 0.00 | 0.00 | 0.00 | 87 | 1020.8 |
| 20260502233012 | 57 | 153 | 0.0 | 7.0 | 0.00 | 0.00 | 0.00 | 88 | 1021.0 |
| 20260502231510 | 57 | 150 | 0.0 | 7.0 | 0.00 | 0.00 | 0.00 | 89 | 1021.3 |
| 20260502230019 | 56 | 144 | 1.0 | 4.0 | 0.00 | 0.00 | 0.00 | 90 | 1021.2 |